When you browse on this site, cookies collect data to enhance your experience and personalize the content and advertising you see.
Visit our Privacy Policy to learn more. By continuing to use the site, you agree to this use of cookies and data.
  • En España
  • Lista de países
  • Para 7 días
  • Temperatura del agua
  • El tiempo en el mapa
  • Informadores
  • user-avatar
    Iniciar sesión

    Tiempo cada hora Hanoi

    Hoy, 31 Mayo, Domingo

    Tiempo Temperatura Precipitaciones Viento Presión Humedad
    00:00 +30°C° 0 mm 3 mps 755 mmHg 78%
    01:00 +29°C° 0 mm 3 mps 755 mmHg 79%
    02:00 +29°C° 0 mm 2 mps 754 mmHg 81%
    03:00 +29°C° 0 mm 2 mps 754 mmHg 83%
    04:00 +29°C° 0 mm 1 mps 754 mmHg 85%
    05:00 +29°C° 0 mm 1 mps 754 mmHg 84%
    06:00 +29°C° 0 mm 1 mps 755 mmHg 83%
    07:00 +30°C° 0 mm 1 mps 755 mmHg 81%
    08:00 +32°C° 0 mm 1 mps 755 mmHg 74%
    09:00 +33°C° 0 mm 1 mps 755 mmHg 66%
    10:00 +35°C° 0 mm 1 mps 755 mmHg 58%
    11:00 +36°C° 0 mm 1 mps 754 mmHg 53%
    12:00 +39°C° 0 mm 2 mps 754 mmHg 48%
    13:00 +40°C° 0 mm 2 mps 753 mmHg 43%
    14:00 +40°C° 0 mm 2 mps 752 mmHg 41%
    15:00 +42°C° 0 mm 3 mps 752 mmHg 39%
    16:00 +42°C° 0 mm 3 mps 751 mmHg 37%
    17:00 +40°C° 0 mm 4 mps 751 mmHg 47%
    18:00 +36°C° 0 mm 4 mps 751 mmHg 56%
    19:00 +34°C° 0 mm 5 mps 751 mmHg 66%
    20:00 +33°C° 0 mm 5 mps 752 mmHg 69%
    21:00 +33°C° 0 mm 4 mps 753 mmHg 71%
    22:00 +32°C° 0 mm 4 mps 753 mmHg 74%
    23:00 +32°C° 0 mm 4 mps 753 mmHg 75%

    Mañana, 1 Junio, Lunes

    Tiempo Temperatura Precipitaciones Viento Presión Humedad
    00:00 +32°C° 0 mm 4 mps 753 mmHg 76%
    01:00 +31°C° 0 mm 3 mps 753 mmHg 77%
    02:00 +31°C° 0 mm 3 mps 753 mmHg 79%
    03:00 +30°C° 0 mm 2 mps 753 mmHg 81%
    04:00 +30°C° 0 mm 1 mps 752 mmHg 82%
    05:00 +30°C° 0 mm 1 mps 753 mmHg 81%
    06:00 +31°C° 0 mm 1 mps 753 mmHg 79%
    07:00 +31°C° 0 mm 1 mps 753 mmHg 77%
    08:00 +32°C° 0.1 mm 1 mps 753 mmHg 73%
    09:00 +33°C° 0.1 mm 1 mps 753 mmHg 69%
    10:00 +34°C° 0.1 mm 1 mps 753 mmHg 64%
    11:00 +36°C° 0 mm 1 mps 753 mmHg 57%
    12:00 +38°C° 0 mm 2 mps 752 mmHg 50%
    13:00 +40°C° 0 mm 2 mps 752 mmHg 43%
    14:00 +40°C° 0 mm 3 mps 751 mmHg 42%
    15:00 +40°C° 0 mm 3 mps 750 mmHg 41%
    16:00 +42°C° 0 mm 3 mps 750 mmHg 40%
    17:00 +38°C° 0.3 mm 4 mps 750 mmHg 49%
    18:00 +36°C° 0.3 mm 4 mps 751 mmHg 59%
    19:00 +33°C° 0.3 mm 5 mps 751 mmHg 68%
    20:00 +33°C° 0.9 mm 4 mps 752 mmHg 71%
    21:00 +31°C° 0.9 mm 3 mps 752 mmHg 73%
    22:00 +30°C° 0.9 mm 2 mps 753 mmHg 76%
    23:00 +30°C° 0 mm 2 mps 752 mmHg 77%

    Pasado mañana, 2 Junio, Martes

    Tiempo Temperatura Precipitaciones Viento Presión Humedad
    00:00 +30°C° 0 mm 2 mps 752 mmHg 79%
    01:00 +30°C° 0 mm 2 mps 752 mmHg 80%
    02:00 +30°C° 0 mm 2 mps 752 mmHg 80%
    03:00 +29°C° 0 mm 2 mps 752 mmHg 80%
    04:00 +29°C° 0 mm 2 mps 752 mmHg 80%
    05:00 +30°C° 0 mm 2 mps 752 mmHg 78%
    06:00 +30°C° 0 mm 2 mps 752 mmHg 76%
    07:00 +30°C° 0 mm 2 mps 753 mmHg 74%
    08:00 +32°C° 0 mm 2 mps 753 mmHg 67%
    09:00 +34°C° 0 mm 1 mps 753 mmHg 61%
    10:00 +36°C° 0 mm 1 mps 753 mmHg 54%
    11:00 +37°C° 0 mm 1 mps 752 mmHg 50%
    12:00 +39°C° 0 mm 2 mps 751 mmHg 45%
    13:00 +40°C° 0 mm 2 mps 750 mmHg 41%
    14:00 +40°C° 0 mm 3 mps 750 mmHg 41%
    15:00 +40°C° 0 mm 3 mps 749 mmHg 41%
    16:00 +41°C° 0 mm 4 mps 749 mmHg 41%
    17:00 +38°C° 0 mm 4 mps 749 mmHg 49%
    18:00 +36°C° 0 mm 5 mps 749 mmHg 58%
    19:00 +34°C° 0 mm 5 mps 749 mmHg 66%
    20:00 +33°C° 0 mm 5 mps 750 mmHg 68%
    21:00 +33°C° 0 mm 4 mps 751 mmHg 69%
    22:00 +32°C° 0 mm 4 mps 751 mmHg 71%
    23:00 +31°C° 0 mm 3 mps 751 mmHg 71%

    3 Junio, Miércoles

    Tiempo Temperatura Precipitaciones Viento Presión Humedad
    00:00 +31°C° 0 mm 3 mps 751 mmHg 72%
    01:00 +30°C° 0 mm 2 mps 751 mmHg 73%
    02:00 +30°C° 0 mm 2 mps 750 mmHg 73%
    03:00 +30°C° 0 mm 2 mps 750 mmHg 74%
    04:00 +29°C° 0 mm 2 mps 750 mmHg 75%
    05:00 +30°C° 0 mm 2 mps 751 mmHg 74%
    06:00 +30°C° 0 mm 2 mps 751 mmHg 73%
    07:00 +31°C° 0 mm 2 mps 751 mmHg 72%
    08:00 +34°C° 0 mm 2 mps 751 mmHg 66%
    09:00 +35°C° 0 mm 2 mps 751 mmHg 60%
    10:00 +36°C° 0 mm 1 mps 751 mmHg 54%
    11:00 +38°C° 0 mm 2 mps 751 mmHg 50%
    12:00 +39°C° 0 mm 2 mps 750 mmHg 45%
    13:00 +41°C° 0 mm 2 mps 749 mmHg 41%
    14:00 +41°C° 0 mm 2 mps 749 mmHg 40%
    15:00 +42°C° 0 mm 3 mps 748 mmHg 39%
    16:00 +42°C° 0 mm 3 mps 748 mmHg 39%
    17:00 +40°C° 0 mm 4 mps 748 mmHg 47%
    18:00 +37°C° 0 mm 5 mps 748 mmHg 55%
    19:00 +34°C° 0 mm 5 mps 749 mmHg 63%
    20:00 +34°C° 0 mm 5 mps 749 mmHg 65%
    21:00 +33°C° 0 mm 4 mps 750 mmHg 68%
    22:00 +33°C° 0 mm 3 mps 751 mmHg 70%
    23:00 +33°C° 0 mm 3 mps 750 mmHg 71%

    4 Junio, Jueves

    Tiempo Temperatura Precipitaciones Viento Presión Humedad
    00:00 +31°C° 0 mm 3 mps 750 mmHg 72%
    01:00 +31°C° 0 mm 2 mps 750 mmHg 73%
    02:00 +31°C° 0 mm 2 mps 750 mmHg 74%
    03:00 +31°C° 0 mm 2 mps 750 mmHg 75%
    04:00 +30°C° 0 mm 2 mps 749 mmHg 76%
    05:00 +31°C° 0 mm 2 mps 750 mmHg 75%
    06:00 +31°C° 0 mm 1 mps 750 mmHg 74%
    07:00 +31°C° 0 mm 1 mps 751 mmHg 73%
    08:00 +33°C° 0 mm 1 mps 751 mmHg 67%
    09:00 +35°C° 0 mm 1 mps 751 mmHg 61%
    10:00 +36°C° 0 mm 1 mps 751 mmHg 56%
    11:00 +37°C° 0 mm 1 mps 750 mmHg 51%
    12:00 +39°C° 0 mm 1 mps 750 mmHg 47%
    13:00 +40°C° 0 mm 2 mps 749 mmHg 42%
    14:00 +41°C° 0 mm 2 mps 749 mmHg 40%
    15:00 +41°C° 0 mm 2 mps 748 mmHg 39%
    16:00 +41°C° 0 mm 2 mps 747 mmHg 37%
    17:00 +39°C° 0 mm 3 mps 748 mmHg 45%
    18:00 +37°C° 0 mm 4 mps 748 mmHg 54%
    19:00 +35°C° 0 mm 5 mps 748 mmHg 63%
    20:00 +34°C° 0 mm 4 mps 749 mmHg 65%
    21:00 +34°C° 0 mm 4 mps 750 mmHg 68%
    22:00 +33°C° 0 mm 3 mps 750 mmHg 70%
    23:00 +33°C° 0 mm 3 mps 750 mmHg 71%

    5 Junio, Viernes

    Tiempo Temperatura Precipitaciones Viento Presión Humedad
    00:00 +33°C° 0 mm 3 mps 750 mmHg 72%
    01:00 +32°C° 0 mm 2 mps 749 mmHg 73%
    02:00 +31°C° 0 mm 2 mps 749 mmHg 73%
    03:00 +31°C° 0 mm 1 mps 749 mmHg 74%
    04:00 +31°C° 0 mm 1 mps 749 mmHg 74%
    05:00 +31°C° 0 mm 1 mps 749 mmHg 74%
    06:00 +31°C° 0 mm 1 mps 750 mmHg 73%
    07:00 +32°C° 0 mm 1 mps 750 mmHg 72%
    08:00 +34°C° 0 mm 1 mps 750 mmHg 65%
    09:00 +35°C° 0 mm 1 mps 750 mmHg 58%
    10:00 +37°C° 0 mm 1 mps 750 mmHg 52%
    11:00 +39°C° 0 mm 1 mps 750 mmHg 47%
    12:00 +41°C° 0 mm 1 mps 749 mmHg 43%
    13:00 +42°C° 0 mm 1 mps 748 mmHg 38%
    14:00 +42°C° 0 mm 2 mps 748 mmHg 38%
    15:00 +41°C° 0 mm 2 mps 747 mmHg 38%
    16:00 +42°C° 0 mm 3 mps 747 mmHg 38%
    17:00 +40°C° 0 mm 3 mps 747 mmHg 44%
    18:00 +38°C° 0 mm 4 mps 748 mmHg 50%
    19:00 +36°C° 0 mm 5 mps 748 mmHg 56%
    20:00 +35°C° 0.4 mm 4 mps 749 mmHg 61%
    21:00 +34°C° 0.4 mm 3 mps 749 mmHg 66%
    22:00 +32°C° 0.4 mm 2 mps 750 mmHg 71%
    23:00 +32°C° 0.1 mm 2 mps 750 mmHg 73%
    Mostrar más